{"data":{"norad_id":58943,"intl_designator":"2024-027N","name":"STARLINK-31346","alt_names":[],"object_type":"PAYLOAD","status":"ACTIVE","operator":null,"country":"US","launch_date":"2024-02-10","launch_site_code":"AFWTR","launch_vehicle":null,"mission":null,"orbit_class":"UNKNOWN","rcs_meters":null,"size_class":null,"mass_kg":null,"dimensions":null,"purposes":["comms"],"wikipedia_slug":null,"has_3d_model":false,"image_url":null,"decayed_at":null,"tle_current":{"epoch":"2026-05-24T22:29:13.242048Z","epoch_age_seconds":74448,"freshness":"FRESH","line1":"1 58943U 24027N   26144.93695882  .00001875  00000+0  75417-4 0  9999","line2":"2 58943  53.1606 313.2345 0001203  81.8579 278.2558 15.30199613129037","mean_motion":15.30199613,"eccentricity":0.0001203,"inclination_deg":53.1606,"raan_deg":313.2345,"arg_perigee_deg":81.8579,"mean_anomaly_deg":278.2558,"bstar":7.5417e-5,"rev_number":12903,"period_min":94.105369506455,"perigee_km":474.39176653885,"apogee_km":476.04068332477,"semimajor_km":6853.3532249318,"source":"CELESTRAK","updated_at":"2026-05-25T13:38:18.790829Z"}}}